Wind_Gust
28 36 39 41 41 45 41 43 37 31 22 30 31 30 32 34 27 27 23 27 35 34 35 37 35 33 35 29 27 27 25 25 25 25 26 25 25 26 27 28 27 25 22 16 15 15 16 17 19 18 19 18 18 18 19 20 20 21 25 23 22 22 22 20 21 20 21 20 18 16 17 16 14 14 15 14 12 12 12 12 13 12 12 11 12 11
30 36 37 38 38 37 36 32 31 26 20 26 28 31 33 32 29 26 23 26 32 32 30 32 33 34 32 31 27 26 27 29 28 28 27 27 27 27 27 28 27 24 17 14 16 14 16 19 17 18 19 18 21 21 21 20 22 21 21 23 23 21 21 20 19 18 19 18 20 18 16 17 17 15 16 15 13 13 12 12 12 12 12 12 12 12
35 41 39 38 34 27 30 34 32 24 21 23 28 25 27 30 23 19 24 24 28 29 30 28 35 35 32 30 27 29 30 29 28 27 27 28 28 29 29 28 25 22 22 18 17 16 18 18 19 19 18 20 20 20 21 20 21 22 24 25 25 22 20 16 16 17 17 17 16 17 18 18 17 11 12 13 12 12 13 12 12 12 12 12 13 12
34 39 36 32 30 27 30 37 34 25 22 27 26 29 34 25 31 29 29 25 26 30 25 28 29 26 27 26 27 27 28 25 22 24 22 23 26 28 29 26 23 24 25 22 21 20 19 19 18 18 19 20 20 21 20 20 18 22 23 26 27 24 19 15 17 17 16 15 15 15 18 15 16 19 17 15 13 13 14 14 11 12 12 12 13 12
33 18 28 27 31 32 33 35 34 31 26 22 26 26 27 27 31 25 27 26 21 20 14 18 23 30 25 26 29 26 25 23 23 22 24 25 24 24 20 20 24 25 24 24 22 19 20 21 21 20 19 21 21 21 20 20 24 27 27 27 27 23 21 20 20 21 19 21 20 20 18 17 19 17 16 14 13 13 12 12 11 11 11 12 13 12
32 12 20 31 29 30 30 33 36 31 30 26 21 22 21 23 25 24 25 28 26 27 30 25 33 39 29 33 34 30 29 28 25 25 26 26 24 24 25 25 25 26 24 23 22 21 20 21 19 20 20 21 21 22 22 23 24 25 26 26 24 21 22 23 21 22 22 22 24 24 22 22 24 21 15 15 15 14 11 12 10 12 13 12 12 12
31 19 22 29 28 31 31 30 31 31 31 27 29 21 14 19 22 24 27 28 29 36 32 32 36 38 30 34 33 31 29 29 26 27 27 26 26 26 26 27 27 28 25 22 19 19 20 21 20 20 21 21 23 21 23 26 24 25 27 26 23 21 21 22 22 22 22 22 23 24 22 22 23 24 15 10 11 13 13 12 12 12 11 12 13 13
33 24 23 26 31 33 34 36 33 35 32 32 18 28 22 21 23 25 26 28 25 22 20 34 40 37 34 32 31 32 30 31 29 30 29 29 26 28 28 28 26 28 25 23 23 22 21 21 23 22 22 21 23 23 25 26 26 24 23 26 24 25 24 23 23 25 24 23 23 22 20 19 20 21 21 17 14 12 13 14 13 11 12 12 13 13
31 29 25 27 28 37 38 31 26 33 36 24 21 23 25 23 23 24 27 28 28 23 27 29 33 39 41 26 31 34 33 33 34 32 31 30 31 31 31 32 30 26 24 23 22 24 23 22 22 21 22 20 22 23 22 25 24 23 24 28 27 25 24 23 25 25 22 22 23 23 22 20 19 22 20 17 15 15 13 14 12 12 13 13 13 14
21 28 24 22 26 31 26 27 27 33 36 20 21 22 21 20 20 25 27 28 28 25 31 33 36 43 37 26 24 32 36 38 38 33 32 33 34 35 35 32 30 27 26 26 23 22 22 22 22 22 21 23 23 22 22 21 22 23 23 25 27 26 23 24 25 24 22 21 23 23 22 23 23 22 20 17 17 14 12 13 13 13 13 13 14 14
13 26 24 24 27 20 23 26 27 31 28 19 22 23 22 21 21 18 23 30 26 30 38 31 33 36 37 32 33 37 45 36 28 27 29 31 32 31 32 32 34 33 29 27 25 23 22 21 22 24 24 23 22 22 23 22 24 23 25 26 28 27 24 24 24 22 22 20 20 23 23 23 24 20 21 20 17 15 13 15 14 13 14 13 14 14
13 25 29 29 20 14 18 24 27 30 28 25 37 33 28 23 20 23 20 18 28 36 34 31 31 34 40 32 34 32 24 29 29 31 33 32 33 34 32 34 34 33 32 30 27 25 23 24 25 25 24 25 24 24 24 22 23 23 23 26 26 24 23 24 23 20 22 19 21 20 21 23 23 22 21 23 20 20 17 16 16 15 15 14 14 14
21 26 23 22 19 20 27 25 31 33 32 31 32 33 31 31 30 30 31 32 35 37 20 32 32 32 45 32 20 26 26 29 29 29 33 33 33 31 31 32 32 33 32 30 28 26 25 26 27 27 27 25 25 25 25 22 22 23 23 25 24 24 22 23 22 21 19 19 20 23 21 21 24 19 20 22 20 17 17 16 16 16 15 15 15 14
26 20 30 24 22 26 25 31 37 39 38 35 40 41 40 38 34 30 35 32 29 23 14 18 25 38 26 30 30 21 28 27 29 29 28 32 31 30 32 31 30 31 32 31 28 28 26 27 27 28 27 27 26 25 27 23 22 23 23 24 23 24 22 20 20 22 21 19 19 20 19 19 21 19 18 17 18 16 15 14 15 15 15 15 14 16
31 30 29 28 31 28 32 27 30 29 39 40 33 41 35 33 43 34 36 36 33 28 22 15 29 29 29 25 23 26 26 27 26 28 26 25 27 25 27 28 29 28 28 30 30 30 29 28 29 29 29 27 27 26 27 26 25 25 24 23 23 23 23 20 19 20 20 20 21 21 19 19 19 19 18 17 16 15 15 14 15 15 15 15 16 16
29 23 26 29 18 31 29 23 26 26 30 32 31 30 35 37 20 28 15 21 27 23 22 31 31 16 19 16 12 15 25 23 22 23 22 22 18 24 25 29 29 31 32 32 30 30 29 29 28 28 28 28 28 28 27 26 25 25 26 24 23 27 26 25 23 23 23 21 23 21 20 20 19 19 18 16 16 14 13 14 15 15 15 16 17 17
32 29 23 30 17 31 27 24 27 29 39 37 35 41 36 27 21 15 8 14 8 13 25 20 28 22 13 14 15 18 22 24 24 25 25 23 22 23 25 27 28 31 33 32 32 32 32 30 30 31 29 29 28 29 28 27 26 25 24 27 26 27 24 25 24 22 21 22 22 21 21 21 20 19 18 18 17 16 14 14 15 16 17 17 17 18
29 24 21 31 24 24 25 24 21 28 20 35 40 31 23 22 23 25 25 15 21 26 22 24 30 28 24 25 23 22 26 26 26 25 25 23 22 24 26 26 29 32 33 32 31 30 31 31 31 30 30 30 30 29 28 27 25 24 28 25 26 28 27 23 26 23 22 24 22 22 20 20 20 19 19 18 18 16 17 16 16 16 18 17 18 18
25 27 22 26 25 23 22 24 21 25 20 26 31 23 35 31 23 28 23 25 29 29 26 24 24 29 28 24 22 21 26 27 28 27 27 26 26 29 27 25 26 28 29 30 30 31 33 32 33 33 31 31 30 29 29 29 27 24 24 25 27 27 25 26 25 22 23 23 23 24 21 21 20 18 19 19 18 17 17 18 17 17 18 19 19 20
23 25 24 25 27 26 26 30 32 30 24 17 18 28 25 22 27 29 29 14 27 24 21 23 25 33 27 25 19 22 23 24 27 28 29 28 30 31 28 28 30 33 33 32 32 32 32 33 31 32 31 33 32 30 30 28 26 25 26 25 23 27 26 26 27 24 24 22 21 20 20 18 20 21 20 19 20 19 19 19 18 18 18 19 19 19
25 17 22 26 25 27 33 36 31 32 33 32 30 32 31 27 19 25 31 33 25 26 23 22 24 28 23 25 21 19 21 25 27 27 27 29 29 30 27 28 30 32 31 32 32 31 32 32 29 31 28 31 30 28 26 28 28 28 27 25 27 28 27 26 28 28 26 24 20 21 21 20 19 20 18 18 19 19 19 18 17 18 19 20 19 20
16 24 17 29 34 31 25 27 25 28 29 30 30 31 30 31 29 33 31 33 32 28 24 22 29 16 14 25 25 26 24 24 25 27 28 28 30 26 25 24 28 30 30 31 30 30 31 30 30 30 27 26 30 29 29 29 27 28 27 28 28 29 27 26 28 27 26 24 22 19 19 21 19 18 18 18 19 18 19 18 17 18 19 19 20 20
12 15 16 25 27 26 22 26 26 23 26 26 27 28 28 29 26 32 30 26 28 26 14 16 14 17 16 15 19 26 26 22 15 18 23 21 21 21 21 24 26 28 29 31 30 30 30 29 30 30 29 29 31 31 30 29 30 29 27 27 28 29 27 27 28 26 22 21 20 19 19 21 20 20 20 20 19 19 20 19 17 19 20 20 20 20
7 20 23 22 22 25 15 17 22 20 23 27 29 27 29 36 35 28 24 16 25 25 23 17 15 18 15 9 10 11 12 11 13 14 12 13 16 20 23 27 28 26 28 28 30 28 30 30 28 27 28 28 29 29 30 30 30 29 28 29 30 29 29 27 27 27 23 21 21 21 20 20 20 21 21 21 20 21 19 19 18 20 21 21 20 21
20 16 17 26 27 25 23 20 25 24 28 34 32 32 27 27 25 22 20 18 26 32 27 23 23 19 14 13 12 11 10 10 14 16 16 17 18 23 26 26 27 27 28 28 28 30 29 29 31 31 32 30 31 32 31 31 30 31 30 28 29 28 29 27 27 27 25 23 23 21 21 21 21 22 21 20 20 21 20 19 19 20 21 21 21 20
15 15 17 27 28 30 33 33 37 36 37 32 24 26 24 25 27 30 27 21 28 22 30 35 27 26 24 18 17 15 13 11 11 13 15 16 21 26 26 27 28 29 29 29 29 29 31 32 32 29 28 29 29 31 31 31 30 29 30 28 27 28 28 27 27 27 23 23 24 23 22 22 21 22 21 21 21 21 21 20 19 20 20 21 21 21
13 11 15 15 20 24 23 18 15 18 24 31 26 27 29 28 27 27 25 27 31 21 28 31 26 23 32 32 22 17 14 13 14 15 18 18 21 25 26 28 28 28 29 29 28 30 29 28 30 31 30 31 29 28 30 29 30 29 29 28 26 29 27 26 28 26 22 25 25 26 24 23 23 23 21 21 21 21 21 21 19 21 21 21 21 21
16 14 14 16 17 16 14 14 16 25 30 32 29 27 25 28 27 28 30 31 18 22 29 23 22 28 34 37 34 19 14 13 14 17 18 21 25 27 28 27 23 27 26 28 28 31 33 32 29 31 31 29 30 29 28 29 30 29 28 28 28 29 28 24 25 25 24 24 24 24 25 23 22 22 21 20 22 22 21 21 21 21 21 20 21 21
17 12 10 11 17 17 15 15 12 18 24 28 30 29 29 30 29 32 29 26 21 26 21 16 21 24 31 39 37 23 14 13 17 18 19 19 22 24 26 28 30 29 29 31 31 31 32 32 32 33 33 33 29 28 27 28 29 27 26 26 27 28 26 26 28 26 27 25 24 24 24 23 22 21 21 21 22 22 21 22 21 21 21 20 21 20
19 18 10 10 13 14 16 18 18 20 19 22 27 29 30 31 33 33 29 27 25 21 21 17 15 26 28 36 34 16 11 14 17 18 20 22 25 27 29 29 31 30 31 32 32 33 32 31 32 33 32 32 31 30 30 30 30 29 29 28 26 26 23 26 27 25 26 26 24 23 24 24 21 22 21 21 22 22 21 22 22 21 21 21 21 20
20 12 8 11 13 16 14 13 15 19 20 25 23 25 28 29 30 31 30 28 26 27 23 23 18 21 25 26 23 10 10 12 15 19 24 26 26 28 29 30 31 31 30 32 32 33 32 32 32 33 34 34 32 31 31 30 29 28 30 28 26 24 23 22 22 22 25 25 23 23 23 22 21 21 22 21 21 20 21 23 22 22 22 21 21 20
18 10 10 12 12 16 9 10 12 16 20 21 23 26 29 30 32 32 38 29 27 26 24 22 24 30 27 28 21 11 14 18 20 21 25 27 29 31 31 31 32 33 34 34 34 32 33 34 34 35 35 33 33 32 30 30 29 29 30 25 26 24 24 22 22 23 23 23 23 23 23 22 22 22 22 22 21 21 21 21 22 22 22 22 21 20
20 17 11 9 12 11 9 10 12 16 19 24 28 31 30 28 25 26 29 28 29 24 28 24 29 25 26 22 22 17 15 16 18 24 25 26 29 32 33 34 35 34 33 33 34 35 34 35 35 33 32 33 35 33 31 31 29 29 25 25 24 24 25 24 24 23 23 23 23 24 22 22 23 23 22 22 22 21 21 22 22 22 22 22 20 20
15 16 10 8 11 14 13 10 14 23 25 28 16 22 26 28 29 28 30 29 27 30 34 27 28 28 26 25 22 20 17 18 16 15 16 24 31 28 29 30 31 31 32 33 33 35 34 33 32 35 34 33 32 30 29 30 30 27 24 24 24 26 26 26 24 23 23 24 24 23 22 22 23 22 22 22 22 21 22 22 23 21 21 20 20 21
12 11 12 9 15 16 12 9 17 20 23 13 9 11 23 28 29 30 26 28 29 30 29 30 30 30 29 27 22 16 11 10 11 15 18 21 27 32 32 30 30 32 34 33 33 33 33 33 33 32 32 32 31 28 28 27 25 25 23 24 26 24 27 27 27 24 23 24 24 23 22 23 23 23 23 22 22 22 22 23 22 22 21 21 21 21
9 12 12 14 16 17 16 15 17 16 14 11 11 9 8 14 22 23 26 26 28 29 29 32 32 32 29 27 20 13 12 10 12 16 19 23 29 30 29 31 31 33 35 36 36 35 35 36 37 36 35 32 31 30 30 29 27 28 27 26 25 25 27 29 28 26 23 22 23 24 23 24 23 22 22 22 21 22 23 23 21 21 19 19 20 20
16 10 12 16 11 10 12 13 9 10 12 12 13 12 20 22 23 27 24 27 23 26 28 30 31 31 28 16 10 10 10 12 15 18 21 25 27 27 27 28 31 34 34 33 36 37 34 33 33 32 32 31 31 31 29 27 28 28 27 27 25 25 26 27 28 28 25 23 24 24 24 24 24 23 22 21 21 21 22 22 21 20 19 19 18 18
16 19 11 12 7 9 14 11 12 13 16 13 12 10 8 11 10 18 23 25 23 26 28 29 29 29 25 14 12 12 13 14 20 18 21 24 26 24 24 22 23 24 26 27 26 28 29 30 31 32 34 32 31 28 28 27 27 28 28 28 27 27 27 28 28 28 27 25 22 22 23 23 24 24 22 21 23 21 20 19 18 18 18 19 18 19
14 16 17 14 15 14 12 11 11 10 12 11 13 10 7 10 9 9 18 24 24 27 29 29 31 29 22 15 15 15 15 20 18 13 15 24 23 23 24 23 25 26 28 30 33 33 32 33 33 33 32 32 31 29 28 29 28 29 30 30 30 28 28 28 28 28 27 25 25 23 22 23 23 23 23 23 23 21 21 20 19 17 17 16 16 17
14 12 14 17 12 12 12 11 9 8 11 10 12 10 11 9 8 17 19 21 15 9 11 20 26 25 16 14 17 18 19 15 14 13 12 24 25 25 26 26 26 26 27 28 28 30 31 31 31 33 33 34 32 29 29 30 29 26 28 29 31 29 29 29 29 28 26 24 24 23 21 19 20 20 21 22 20 20 22 19 17 17 17 15 17 18
16 13 14 13 13 9 6 12 9 11 11 10 12 12 9 8 11 18 19 14 13 9 9 12 14 13 14 17 20 21 16 12 11 12 9 20 22 22 23 24 26 27 28 29 30 25 31 32 34 35 35 32 30 30 30 29 28 27 26 29 33 30 27 27 26 26 25 25 24 23 21 18 20 23 20 19 20 19 19 18 18 18 16 16 15 16
12 5 6 9 12 13 10 12 9 15 12 10 11 11 9 11 13 12 18 11 12 10 9 12 14 13 15 19 18 14 10 10 11 9 12 20 25 25 24 23 24 24 24 24 25 30 31 32 30 31 30 29 32 30 29 28 27 26 26 29 32 29 24 24 25 25 25 25 25 24 23 22 22 23 22 21 20 20 20 17 19 18 18 17 16 17
20 12 10 14 10 12 11 11 9 13 8 9 12 10 10 8 12 14 16 11 12 12 12 9 14 13 15 17 15 10 10 8 9 10 13 17 19 22 24 24 25 26 28 29 31 31 31 32 33 33 32 32 30 30 28 28 26 26 24 29 29 27 26 25 26 27 27 26 26 24 25 24 24 22 21 22 23 23 21 19 19 18 17 18 18 18
15 16 12 9 14 15 11 10 9 11 10 10 11 7 9 12 14 16 15 14 15 15 16 13 13 12 14 15 15 13 10 10 9 9 13 16 18 18 19 20 21 23 25 27 29 31 29 31 32 33 31 32 31 30 29 30 27 25 25 27 26 27 26 25 26 26 27 26 25 25 26 26 26 23 20 22 24 23 22 22 21 19 18 18 19 20
17 19 12 10 14 14 10 12 12 10 13 10 10 10 10 13 12 13 13 13 16 17 15 15 16 12 11 11 11 13 13 10 10 13 14 15 18 21 22 23 23 25 26 28 30 30 30 32 32 32 31 31 31 29 29 29 29 27 29 27 27 32 31 27 27 27 26 26 25 26 24 24 25 26 23 23 24 23 23 20 20 21 19 20 20 20
8 11 9 14 12 9 12 12 8 12 10 10 13 13 12 13 15 16 13 14 15 15 16 17 16 15 10 10 10 11 13 12 14 13 11 13 16 19 23 25 23 22 23 25 27 29 29 28 29 30 31 30 31 31 27 28 28 30 29 27 29 32 31 29 28 26 26 25 23 24 25 24 23 23 23 23 24 23 21 22 23 22 21 22 21 20
8 8 10 12 9 7 12 9 10 9 8 8 10 11 11 12 15 14 13 14 14 15 16 15 15 15 13 10 10 9 9 11 13 13 11 13 16 18 20 21 23 24 26 28 27 28 30 28 32 32 31 31 31 30 28 26 28 28 26 27 30 29 29 29 29 28 26 24 23 22 25 26 25 25 24 23 22 23 23 24 24 24 23 23 22 21
15 9 13 14 9 13 8 9 7 8 10 9 10 13 14 14 12 12 12 15 15 15 14 13 12 14 11 14 12 10 11 11 12 14 14 14 14 17 18 20 23 24 24 24 25 29 28 30 30 30 31 33 31 28 27 27 26 26 26 27 29 29 30 29 29 30 28 28 24 25 25 24 17 23 24 25 24 24 24 24 25 24 23 23 23 22
11 9 13 11 18 13 9 10 9 9 11 12 11 9 9 10 13 11 14 16 17 17 14 14 16 15 15 13 11 11 13 11 11 12 14 14 14 15 16 18 20 20 22 23 24 28 30 29 30 30 30 31 30 28 26 25 24 27 28 28 28 29 29 29 27 27 27 28 26 24 21 21 25 24 24 23 23 22 23 24 23 23 21 19 21 23
12 17 13 13 14 14 15 14 15 13 11 15 12 13 13 13 13 15 14 18 16 16 15 14 15 15 15 13 12 13 16 15 12 10 12 12 12 13 13 16 19 20 21 22 23 26 25 26 28 30 31 30 28 27 26 25 23 25 27 27 28 29 28 27 28 25 27 26 26 25 25 22 24 22 23 23 23 22 19 9 13 19 24 21 13 13
12 11 14 15 12 10 11 9 11 13 12 15 15 13 12 12 13 15 15 14 14 14 15 15 14 15 16 16 14 14 15 15 12 11 12 13 12 12 13 16 20 21 22 23 24 25 25 26 26 28 28 29 27 26 26 24 24 25 26 26 27 29 28 29 26 25 26 26 25 25 25 24 24 23 23 23 23 22 20 20 15 3 3 6 14 14
Wind_Speed
12 16 17 18 19 25 27 27 23 19 13 18 18 17 17 17 14 16 14 15 21 18 20 21 21 19 21 17 16 16 15 14 14 15 13 13 13 12 12 12 11 11 11 9 9 9 10 10 10 10 10 10 11 11 12 12 12 12 12 13 13 11 11 10 10 9 9 9 8 7 6 6 6 5 5 4 4 3 2 4 4 5 3 3 3 2
14 16 18 23 24 24 23 20 19 17 8 14 16 18 16 18 13 14 12 15 17 16 15 19 20 21 19 19 16 15 16 17 17 16 16 15 14 11 12 12 12 11 9 8 9 8 8 10 11 11 10 11 12 11 13 12 13 13 13 13 13 11 11 11 9 8 7 8 7 7 7 6 6 6 5 5 3 2 3 3 4 4 4 3 2 2
15 18 21 25 21 17 18 19 20 14 11 12 12 11 11 13 11 10 13 14 15 15 13 16 19 19 19 18 16 17 18 15 16 16 15 15 13 11 11 12 11 12 12 10 9 10 10 11 12 11 10 11 11 12 12 12 13 14 14 14 14 11 11 7 7 8 7 6 7 7 6 7 7 4 4 6 4 3 4 3 4 4 4 3 3 3
15 18 23 19 18 16 17 21 22 15 12 13 12 13 14 12 14 11 14 15 15 11 10 16 16 12 15 15 16 16 16 13 13 14 13 12 13 13 13 10 10 13 14 13 12 12 11 11 10 10 10 10 10 12 12 11 11 11 11 13 11 7 9 8 8 7 8 6 6 5 6 5 5 7 6 6 4 4 5 5 4 4 4 3 3 3
15 9 17 16 19 20 20 23 22 14 11 11 14 12 11 15 16 12 11 13 12 11 6 6 9 12 13 12 13 13 14 13 12 13 13 12 12 11 10 9 11 13 14 13 13 12 11 12 12 11 11 10 11 11 11 10 13 11 15 16 14 11 10 9 10 11 9 10 10 8 8 9 9 8 7 5 4 3 4 4 4 4 3 3 3 3
18 1 9 19 19 17 16 17 20 16 13 11 12 12 12 13 15 14 13 16 10 10 13 14 11 14 15 19 18 13 13 15 14 14 15 15 14 12 12 13 12 13 13 13 13 12 12 12 12 12 12 12 11 12 13 11 12 13 13 15 10 10 9 9 12 11 10 9 10 9 8 7 6 6 6 7 6 4 4 4 4 3 3 3 3 2
14 10 10 15 16 19 19 16 19 19 13 12 12 12 7 10 13 15 15 14 12 13 14 17 15 12 13 18 19 17 16 17 14 15 15 15 13 13 12 12 13 15 14 13 11 11 12 13 12 12 12 13 13 12 12 11 13 14 15 15 11 7 7 10 11 13 11 11 10 12 10 10 9 8 4 3 4 4 5 4 4 3 2 2 3 2
15 14 13 16 18 18 17 17 17 20 14 12 9 17 13 10 14 14 15 13 9 10 10 20 16 14 13 14 17 20 18 18 18 17 16 14 14 14 13 13 14 14 15 13 14 13 12 12 12 11 12 13 13 14 15 15 15 12 13 15 12 12 10 10 12 14 13 11 11 11 11 9 10 10 9 6 5 5 5 5 4 2 2 3 2 2
19 16 14 16 17 17 17 16 16 21 15 8 10 14 15 13 13 14 13 11 11 11 11 12 19 14 15 11 18 20 19 20 21 19 17 15 15 16 16 15 15 14 14 14 13 14 14 13 11 9 12 12 13 13 13 15 12 12 13 16 15 11 12 12 15 14 13 11 12 11 10 10 9 11 9 6 6 6 5 6 4 3 3 3 2 3
8 15 14 13 12 13 14 16 15 20 16 10 12 13 11 11 11 13 11 11 13 10 13 17 18 15 15 12 9 18 20 21 21 19 17 17 18 19 17 16 15 14 14 15 14 13 13 12 11 11 13 14 14 13 13 13 12 13 13 15 17 15 12 12 15 14 14 12 11 10 10 11 11 11 10 8 7 7 6 6 6 5 4 4 4 4
6 16 15 10 11 9 12 15 15 19 17 11 12 12 10 9 8 8 9 11 10 11 17 19 20 17 12 15 15 15 18 18 14 13 15 18 19 18 16 16 15 15 15 14 14 13 13 12 10 12 14 14 14 12 14 12 12 13 15 16 18 17 12 14 13 12 12 11 10 10 11 13 14 12 11 10 8 7 6 7 6 5 4 4 4 4
4 13 14 11 11 6 8 12 13 18 17 13 12 12 12 9 8 9 7 7 9 13 18 18 18 21 16 13 16 16 14 17 16 18 20 19 20 18 17 16 16 16 15 15 15 13 12 12 13 14 15 15 15 15 14 12 11 12 13 14 16 15 14 13 11 11 10 9 10 10 10 13 13 12 10 12 11 10 9 8 7 6 5 5 5 4
10 12 12 13 10 10 13 12 14 18 17 14 14 13 13 11 8 9 10 11 13 13 9 19 19 14 20 14 10 15 15 17 17 15 18 20 20 19 18 17 16 16 16 15 15 13 12 14 15 15 15 14 15 15 16 13 12 13 12 14 14 13 13 14 13 11 11 10 10 11 11 12 11 10 11 12 11 9 8 7 7 7 6 5 5 5
9 11 17 13 12 12 13 13 15 16 17 17 17 16 15 13 12 12 14 10 10 10 5 8 15 15 11 14 18 8 12 15 18 17 16 19 19 18 17 17 15 15 16 15 15 14 14 14 15 16 17 16 15 16 15 13 13 12 11 13 14 15 13 12 12 13 13 12 11 11 10 11 11 10 10 8 8 8 6 6 6 6 6 5 5 6
11 12 13 15 11 15 15 12 14 13 19 18 17 18 14 12 12 12 11 13 14 11 9 7 10 10 13 8 13 15 11 13 14 15 15 15 16 15 15 16 17 16 16 15 15 15 16 16 16 16 17 15 15 16 16 15 15 12 13 13 15 15 14 13 12 10 12 11 12 12 9 9 8 7 8 7 7 7 7 6 6 6 5 5 6 6
16 8 13 16 9 17 16 13 14 15 14 14 14 14 14 13 7 10 4 8 11 9 8 12 9 6 6 6 4 5 13 13 12 13 13 12 9 11 14 16 16 15 16 16 17 17 17 16 17 16 16 16 16 17 16 16 14 13 15 14 15 16 16 13 13 13 14 12 12 12 12 11 10 8 8 7 7 6 6 6 6 7 6 6 6 7
13 8 13 16 11 19 16 13 13 15 13 14 14 17 16 12 8 3 2 6 4 3 8 5 10 8 1 3 7 9 12 14 14 14 13 13 12 12 13 14 16 15 15 16 17 16 19 17 18 18 17 16 16 16 16 16 15 16 15 16 15 15 13 15 14 13 13 13 13 13 12 12 11 11 10 8 9 8 7 6 6 6 7 7 7 8
11 9 11 16 10 13 15 11 10 15 9 12 15 14 13 12 12 7 8 4 6 9 6 11 14 13 10 6 11 12 15 15 15 15 15 14 13 14 13 14 15 15 16 17 18 18 19 19 19 18 15 19 17 17 16 17 16 13 15 15 16 12 13 13 12 12 13 14 13 13 12 11 11 10 10 9 10 8 8 8 7 7 7 7 8 8
11 10 9 16 13 13 13 11 10 13 11 10 12 11 11 10 9 11 5 10 11 10 7 10 11 12 12 9 9 11 15 16 16 16 15 15 14 14 14 15 15 15 15 15 16 16 16 18 18 18 19 19 18 17 16 16 16 15 14 14 15 15 15 15 13 12 11 13 11 12 11 12 10 9 10 9 9 9 9 9 8 8 8 9 9 9
9 8 8 13 14 14 12 11 11 13 12 8 9 11 11 8 11 10 8 5 9 9 8 10 12 11 11 8 10 12 12 14 15 17 17 17 16 14 14 14 15 15 15 15 16 16 17 18 20 19 18 20 20 18 17 18 15 16 16 16 14 14 14 16 16 13 13 12 11 11 10 10 10 11 10 10 10 9 10 9 9 9 10 10 9 9
8 6 7 10 15 14 12 12 12 14 14 12 11 12 11 9 8 10 11 11 8 8 8 7 8 8 8 11 9 9 12 13 13 14 14 16 17 18 16 13 14 16 15 16 16 16 18 18 18 19 18 18 18 17 15 16 16 16 15 15 14 15 15 15 17 16 14 12 10 12 13 11 10 11 9 10 10 10 10 9 9 8 9 9 9 10
4 8 5 11 14 13 11 13 14 15 15 13 12 12 13 13 12 15 12 13 10 8 6 7 9 4 4 7 10 11 9 9 13 14 15 17 18 16 12 13 14 14 15 15 16 16 16 18 18 18 15 16 17 16 17 17 14 17 17 16 16 15 14 14 14 14 14 13 11 11 11 12 10 10 9 10 10 10 10 9 8 9 9 10 10 10
3 5 5 10 11 11 12 16 16 14 15 14 12 11 13 12 10 11 10 11 11 9 5 6 4 6 6 6 9 14 14 12 7 10 13 11 13 12 11 12 12 13 15 15 15 15 17 18 18 17 17 13 17 16 17 17 17 17 17 16 15 16 15 14 14 13 11 11 11 10 10 11 11 10 11 12 10 11 10 9 9 9 10 9 9 9
1 5 9 9 10 13 8 8 12 12 14 14 14 13 13 15 15 12 9 6 8 11 7 4 3 2 6 1 3 0 2 4 5 3 4 4 4 7 10 11 13 14 14 14 13 14 16 17 17 16 15 12 13 16 18 17 16 15 16 16 17 17 17 15 14 13 10 11 9 11 11 11 10 11 11 11 10 11 11 9 9 9 10 10 9 10
4 5 6 10 9 9 9 9 11 12 12 12 13 14 14 13 15 11 9 8 7 15 13 8 8 4 5 5 3 2 2 2 2 5 5 5 7 8 9 11 12 14 14 15 16 17 17 18 19 18 19 15 16 19 18 17 17 17 17 16 16 16 17 15 14 14 12 12 11 11 11 11 11 12 12 11 10 12 11 10 9 9 10 10 10 10
5 7 6 10 11 13 14 13 15 16 17 12 12 14 14 15 17 15 11 8 8 9 17 11 8 5 7 8 9 7 5 4 2 3 4 5 7 11 12 13 14 14 14 16 17 17 18 18 17 17 17 16 17 17 18 17 17 17 17 16 15 16 16 15 15 15 13 12 13 13 13 12 12 12 12 11 11 12 11 10 9 10 9 10 11 10
3 4 6 5 8 10 8 8 5 9 10 13 15 16 17 16 16 13 10 9 10 8 11 14 12 9 11 12 12 9 6 5 6 6 6 7 7 8 11 13 13 13 14 17 17 15 16 17 20 19 18 16 17 17 16 16 17 16 16 16 15 15 15 15 16 15 13 14 14 14 14 12 13 12 12 11 11 11 10 10 10 10 10 10 11 11
6 4 6 7 7 7 6 7 8 13 14 16 16 16 14 16 15 15 12 12 9 8 11 9 14 14 14 15 11 7 6 4 5 5 6 7 8 10 11 12 13 14 15 16 17 19 21 20 17 19 18 17 16 16 16 16 16 16 16 16 15 16 15 11 14 13 13 13 13 13 14 13 12 12 11 10 11 11 11 10 10 10 10 10 11 11
7 4 4 5 7 6 3 4 3 9 14 16 18 17 17 17 18 17 15 14 12 10 7 8 12 14 16 20 16 8 5 1 0 3 4 7 9 11 13 14 14 15 17 18 19 19 20 20 19 21 20 18 17 18 17 16 16 15 14 14 15 15 15 14 16 15 14 14 13 13 13 12 11 11 11 11 11 11 11 11 10 10 10 10 10 9
6 7 4 4 6 6 5 6 7 8 8 12 16 18 18 19 20 19 16 16 15 10 11 9 7 14 14 21 20 3 3 3 2 1 4 8 10 12 13 14 15 16 18 19 20 19 19 19 19 20 20 20 20 19 18 16 16 16 16 15 15 15 13 14 16 13 14 14 13 12 12 12 11 11 11 11 11 11 11 11 11 10 11 11 10 10
8 3 3 4 5 5 5 4 6 9 11 13 13 15 17 17 18 19 17 17 17 15 14 15 11 10 11 15 13 1 2 2 2 5 7 9 10 13 13 15 16 17 18 18 18 20 20 19 20 20 20 20 20 19 17 15 16 15 16 16 14 13 13 12 13 12 14 13 12 12 12 11 11 11 12 11 11 11 11 12 10 11 11 11 10 10
8 2 2 4 4 4 3 3 5 8 12 13 14 16 17 18 18 17 15 15 15 14 15 13 12 13 12 12 12 5 1 4 6 6 7 8 11 13 14 16 17 17 18 18 19 19 20 20 21 22 22 20 19 20 18 16 15 15 17 14 14 13 13 12 12 12 12 13 12 12 12 11 12 12 12 12 11 11 11 11 11 11 11 11 11 10
8 6 3 3 2 2 2 4 4 9 10 11 14 17 18 16 15 14 15 16 16 13 13 11 13 11 12 11 12 9 5 6 6 6 7 9 10 12 13 14 16 17 18 19 20 20 21 22 21 21 21 19 19 19 18 17 16 16 14 14 14 12 13 13 13 12 12 12 13 12 11 11 12 12 12 12 12 11 11 11 12 12 11 11 11 10
7 7 3 1 3 2 4 3 6 10 11 10 6 13 15 16 16 16 16 17 17 16 13 12 12 13 15 14 12 11 8 5 5 5 7 8 10 13 14 14 16 16 16 17 18 19 19 15 16 19 21 19 19 18 16 17 16 16 13 13 13 14 14 14 13 13 12 12 13 12 11 11 12 12 12 12 12 11 11 12 12 11 10 10 10 10
5 4 3 1 3 5 4 2 6 9 8 5 3 3 14 17 17 18 16 17 18 19 18 18 18 18 17 15 12 8 4 1 2 6 9 10 11 12 15 16 16 17 17 18 18 19 19 20 18 20 19 19 17 17 16 15 14 13 13 13 14 13 13 13 13 12 12 13 13 12 12 12 12 12 12 12 12 11 12 12 12 12 10 10 10 10
3 2 1 3 4 5 5 4 6 5 6 5 5 2 2 7 13 15 16 17 18 18 18 18 19 19 17 16 12 6 3 1 4 7 10 12 13 14 15 15 17 17 18 17 19 18 19 21 20 20 20 17 16 16 16 16 15 15 14 13 13 12 12 13 12 12 11 12 12 13 12 13 12 12 12 12 11 12 13 12 11 11 10 9 9 9
4 2 0 5 3 4 4 5 2 3 5 6 6 5 8 9 11 12 10 13 14 15 16 17 19 18 17 10 4 1 2 3 7 8 12 13 14 14 14 13 14 15 14 14 16 18 18 17 18 19 18 18 18 18 17 15 15 15 14 13 11 13 13 14 14 14 13 12 13 13 13 13 13 12 12 12 12 12 12 12 11 10 9 9 9 9
6 4 3 4 1 2 3 3 3 4 6 4 5 4 3 5 3 11 10 10 13 15 16 17 17 18 16 6 3 1 1 5 9 6 10 13 14 13 12 11 12 13 14 15 15 16 17 17 16 18 18 20 18 17 14 14 15 15 15 14 14 14 14 16 16 15 15 14 12 12 12 12 13 13 12 11 12 12 10 10 9 9 8 9 9 8
5 6 8 5 5 5 4 3 3 2 4 4 6 4 2 2 2 4 7 10 11 16 17 18 19 18 13 6 6 5 4 7 5 3 2 10 12 12 12 12 13 13 14 15 17 17 18 17 18 20 19 19 19 17 16 17 17 16 16 16 16 15 14 14 13 12 13 12 11 10 11 12 12 13 12 12 12 11 11 10 9 8 7 7 7 7
6 3 4 6 5 4 4 3 0 1 3 5 6 4 3 1 3 8 6 5 7 2 5 12 16 15 9 7 7 7 8 5 5 2 3 6 11 13 12 13 14 14 15 15 15 16 17 17 17 18 20 21 20 18 18 18 16 16 15 16 15 15 15 15 14 14 13 13 13 12 11 10 11 11 11 12 11 10 11 9 8 8 8 7 7 7
6 4 5 5 4 2 3 3 2 3 4 4 5 5 2 2 4 7 6 2 5 3 1 2 6 5 5 8 8 7 7 1 4 4 3 7 12 10 11 12 13 14 15 16 16 17 16 17 18 20 21 18 18 17 17 16 15 15 14 15 15 15 15 14 14 14 14 13 13 12 12 9 9 11 10 10 10 9 9 8 9 8 8 8 6 7
4 1 1 3 3 3 3 3 2 4 4 3 4 4 3 4 5 2 6 3 5 4 3 1 2 4 4 7 7 6 2 3 4 3 3 9 10 14 13 13 14 14 14 15 15 17 16 17 18 18 18 17 17 16 16 16 15 14 14 14 16 17 12 12 13 13 13 13 13 13 12 10 8 8 8 8 9 9 9 8 9 8 9 8 7 8
3 2 2 4 2 4 3 3 2 3 3 1 2 2 0 3 4 3 7 4 5 5 5 3 1 2 3 6 7 4 2 1 2 3 3 9 10 12 14 13 14 14 16 17 18 18 17 17 17 18 18 17 17 16 15 16 16 14 13 14 15 14 15 11 11 11 12 12 12 12 12 10 11 9 8 9 10 11 10 9 9 9 9 9 9 9
5 3 3 2 5 4 2 1 1 1 2 3 3 1 2 3 5 6 6 5 7 7 7 5 5 3 2 4 5 5 4 3 1 1 4 9 10 10 9 11 12 13 14 16 17 18 18 15 16 16 18 16 16 15 15 16 15 14 14 16 14 14 13 12 11 10 11 11 12 12 12 11 12 11 10 11 11 12 11 11 10 9 8 8 9 9
8 8 2 1 3 4 1 3 3 3 3 3 2 2 3 3 3 4 6 5 7 7 7 6 7 5 1 1 3 5 5 3 1 2 2 5 8 12 9 7 8 11 14 15 17 17 16 16 17 17 17 16 18 15 15 15 16 16 16 15 14 15 16 15 14 14 14 14 13 13 12 12 12 13 12 12 12 12 11 11 10 9 8 9 9 9
2 3 3 5 3 1 4 5 3 4 2 1 1 3 4 2 2 1 4 5 7 7 7 7 7 7 3 1 1 3 5 5 5 3 1 4 6 9 14 15 13 10 12 13 15 17 16 15 16 17 18 17 18 17 14 15 15 17 15 14 15 17 17 16 15 14 14 13 12 13 13 13 13 12 12 13 11 11 9 10 10 10 9 10 9 9
2 1 3 3 2 2 2 3 3 3 2 1 2 2 3 1 2 1 1 5 7 7 7 7 7 7 6 3 3 3 1 1 3 3 3 5 7 9 10 12 13 14 15 15 15 16 15 16 16 17 18 17 17 16 15 15 14 15 14 15 16 16 16 15 15 13 12 12 11 10 10 12 11 11 11 11 10 10 10 10 11 11 11 10 10 9
4 2 5 6 3 5 2 2 0 1 1 1 2 4 2 0 1 3 3 6 7 7 6 5 5 7 5 6 5 3 3 1 1 2 3 4 6 8 9 10 13 14 14 14 15 16 15 15 16 17 17 16 16 15 15 14 13 14 14 14 15 15 14 13 13 13 13 14 12 11 11 12 13 13 11 11 11 11 11 11 12 11 11 11 10 9
2 2 3 3 6 4 3 4 2 2 4 5 3 2 2 2 3 2 2 6 9 9 7 7 8 8 7 6 5 5 5 3 2 2 2 2 3 5 6 9 11 12 13 14 13 15 14 14 14 15 16 16 16 15 14 13 12 14 15 14 15 15 15 13 14 13 15 14 13 12 11 10 12 11 10 11 11 10 10 11 11 9 8 8 8 9
4 5 4 3 3 4 5 2 6 3 2 5 4 4 4 2 1 3 1 5 8 8 7 6 7 7 7 6 5 6 6 5 4 3 4 3 4 5 6 8 10 11 12 12 11 14 14 12 13 14 16 15 15 14 14 13 12 13 14 14 14 15 15 14 14 14 14 13 12 12 12 10 11 11 10 11 11 10 9 7 8 9 9 9 9 11
3 2 4 4 3 2 2 2 4 3 4 4 5 6 5 5 5 6 7 7 7 7 7 7 6 7 8 7 5 6 6 5 5 4 5 5 4 4 5 7 8 9 9 10 11 14 14 12 12 12 14 14 14 14 14 12 12 12 13 14 14 15 15 15 13 12 12 13 12 12 12 11 11 11 10 10 10 10 9 8 6 3 1 2 12 11
Wind_Direction
173 200 197 203 203 201 203 204 210 213 226 223 213 213 211 214 219 209 206 169 188 191 203 213 219 220 220 206 191 180 183 199 204 206 205 210 210 209 206 206 207 203 198 178 181 187 179 180 176 181 172 168 171 170 170 168 170 167 166 162 164 161 161 167 164 169 169 167 171 167 170 162 163 152 144 134 149 132 118 144 141 120 109 106 101 94
196 209 209 209 209 205 205 207 212 223 230 227 213 208 209 210 204 192 181 175 183 195 210 218 225 225 224 216 201 181 185 196 201 204 208 211 212 209 208 207 206 201 176 150 175 179 192 189 176 177 175 165 170 166 169 167 165 167 163 164 153 157 166 167 172 163 170 172 171 171 172 159 151 143 152 119 82 94 117 72 84 82 113 119 121 122
202 213 212 210 209 209 205 204 210 207 210 203 200 187 195 193 203 172 192 175 186 203 226 213 223 227 223 219 199 192 193 197 201 205 208 210 210 211 212 211 203 195 190 184 184 194 200 195 186 179 176 171 169 167 165 164 167 169 169 156 150 169 159 151 164 165 166 170 167 175 162 159 137 105 110 120 113 128 108 82 99 93 101 118 117 108
204 219 219 208 207 210 204 204 201 202 215 204 200 202 210 200 193 184 197 188 192 205 216 226 231 225 223 214 204 202 199 199 200 206 213 215 215 214 214 206 198 197 197 193 191 197 191 197 187 181 176 172 170 164 166 161 163 168 150 151 155 157 156 155 151 157 170 159 142 143 140 124 139 137 123 96 87 108 99 80 58 70 78 79 91 86
210 220 210 209 200 210 205 199 197 199 203 208 216 216 212 199 200 204 175 177 182 197 239 228 224 232 214 200 204 202 204 204 197 202 211 215 223 224 219 214 210 205 202 202 195 196 196 197 194 187 178 174 178 167 148 154 173 164 156 153 165 175 159 156 156 171 150 122 111 116 113 115 114 108 104 104 105 89 83 90 69 74 72 89 90 83
213 177 204 197 195 194 194 194 201 202 211 205 218 229 217 201 199 195 172 171 179 200 202 201 223 228 207 209 210 196 196 206 199 204 208 212 215 215 214 213 211 214 211 208 203 198 203 203 193 185 182 179 172 165 150 184 170 157 153 154 164 183 158 165 166 168 140 143 141 147 153 139 131 133 145 160 146 152 125 97 92 76 85 83 81 93
214 161 196 186 187 197 203 205 199 205 209 207 193 211 226 191 185 194 166 182 193 209 192 203 225 231 212 212 206 200 198 201 198 208 209 207 207 208 211 208 207 209 207 209 210 204 203 206 197 184 179 175 170 163 157 176 172 169 159 156 152 174 164 169 179 170 156 157 164 171 164 156 153 160 165 130 128 126 102 101 104 97 81 97 96 67
213 168 193 199 197 197 201 209 196 197 205 211 170 187 199 193 195 185 183 197 218 213 201 192 213 242 229 207 202 196 196 200 202 205 208 204 202 206 210 210 207 206 205 204 208 212 211 207 201 186 169 172 169 157 158 173 179 173 165 147 166 188 168 171 176 170 177 167 172 172 168 170 158 168 159 153 128 106 109 117 119 125 117 95 107 121
208 197 198 194 198 198 203 201 187 192 204 191 151 174 185 199 199 196 196 201 215 197 208 194 208 228 240 220 191 189 198 204 206 201 200 201 205 209 212 210 207 206 204 203 204 208 208 206 197 174 174 166 159 154 162 173 177 157 181 154 176 167 180 177 178 180 176 173 173 177 174 165 159 152 145 142 129 121 129 130 139 135 133 121 115 116
200 213 198 204 194 198 199 195 188 186 197 176 156 168 169 181 192 197 205 199 208 208 217 205 198 220 226 221 183 194 204 205 206 198 195 199 204 210 210 208 206 204 204 206 205 207 208 203 194 170 170 162 158 158 163 174 175 170 172 167 170 168 182 182 178 178 172 169 171 176 172 158 151 147 143 145 137 133 142 147 152 156 153 136 133 122
198 202 204 207 198 199 191 192 187 183 199 157 165 154 155 162 176 190 208 205 198 220 226 217 199 212 231 212 199 198 206 206 194 190 194 200 207 211 208 204 202 200 200 201 203 203 204 201 175 162 167 163 157 160 166 172 175 172 172 168 165 161 174 178 172 173 173 172 176 176 176 165 154 148 145 142 143 145 156 157 160 158 142 143 135 129
196 190 192 200 212 202 174 164 173 180 194 178 181 169 158 164 165 181 192 211 211 225 226 217 208 200 232 217 210 208 203 201 195 192 193 197 202 205 204 202 200 199 198 198 200 199 199 191 177 168 170 165 162 160 166 169 169 168 174 172 166 161 167 166 162 173 173 174 169 175 175 163 158 154 154 157 157 166 165 160 153 150 151 140 134 132
200 194 189 181 204 195 178 172 176 181 186 186 190 184 173 164 171 181 183 195 211 224 221 207 210 207 226 230 216 203 197 187 192 198 196 198 202 202 201 198 196 195 197 197 195 192 194 194 179 171 172 162 163 162 163 166 167 167 175 176 170 161 166 165 160 168 169 170 171 171 173 168 158 166 163 161 159 159 159 158 154 151 145 142 140 130
195 185 186 177 182 201 195 181 164 180 184 187 193 188 186 175 179 186 191 199 214 202 69 211 204 229 235 226 234 207 189 190 190 199 205 205 204 199 198 194 192 193 195 193 190 189 193 193 179 174 172 166 163 162 159 164 168 168 174 182 176 168 160 162 164 172 170 170 169 161 169 165 166 162 160 149 148 154 150 151 148 145 143 139 133 132
183 182 192 186 189 179 203 202 177 181 177 190 194 195 196 187 181 182 191 192 201 195 152 190 197 229 220 224 215 213 193 191 192 198 205 212 208 200 196 190 190 193 194 190 187 189 192 189 180 176 174 168 168 163 159 169 173 169 174 180 179 161 165 171 164 154 158 166 166 163 158 148 159 151 152 150 149 148 144 144 140 132 135 131 132 127
200 199 173 195 181 177 195 202 182 177 179 193 196 199 209 205 166 201 190 211 199 188 170 185 209 201 210 62 29 205 193 191 188 196 197 190 193 191 190 189 191 193 193 190 187 190 193 186 181 180 175 170 174 169 165 172 172 168 174 176 178 175 171 163 158 167 164 162 164 159 152 157 158 155 154 147 139 131 134 134 137 132 128 127 127 124
190 198 151 178 216 179 193 196 184 189 183 176 195 202 203 203 198 172 82 44 15 201 208 180 218 229 51 191 162 189 200 194 182 186 190 190 186 180 184 187 191 192 189 185 183 184 190 189 184 183 178 178 179 178 174 177 174 172 168 172 175 183 167 168 170 166 154 161 163 159 155 159 158 159 158 147 136 134 133 134 134 135 127 130 132 129
179 168 158 179 178 186 192 195 189 197 204 171 203 192 193 217 234 187 198 137 216 207 214 193 212 217 211 228 166 185 191 190 189 189 191 194 187 186 188 191 192 191 185 182 184 184 186 190 184 182 181 182 183 184 175 176 174 167 170 172 172 183 178 166 171 162 162 161 163 163 155 154 154 152 146 139 137 138 140 142 136 136 139 141 135 133
213 170 168 186 181 176 188 185 194 214 234 212 196 169 186 167 201 191 214 189 197 215 218 207 223 233 218 207 156 186 195 189 191 193 195 195 195 198 198 196 193 184 180 182 185 182 184 187 184 179 183 182 181 181 174 170 170 167 170 167 170 177 188 170 169 167 165 163 162 167 156 152 149 143 139 141 143 144 148 146 142 142 134 138 139 137
212 193 152 178 186 169 187 192 189 189 204 264 230 202 199 202 204 184 209 209 195 215 217 227 212 230 215 223 176 187 189 187 191 195 202 202 200 201 203 197 187 180 182 182 181 182 185 185 185 179 177 177 178 177 172 167 166 161 164 165 173 181 188 174 166 162 167 166 165 154 147 146 147 145 143 147 148 152 151 145 140 136 140 143 142 140
191 247 170 165 182 164 193 193 195 183 180 191 205 199 184 224 196 220 198 220 204 211 210 219 228 224 212 207 212 197 190 188 193 200 204 208 205 205 203 192 182 182 182 181 178 179 186 185 183 182 186 184 178 178 172 168 165 164 162 167 164 177 185 177 166 166 166 169 162 146 146 145 147 144 144 147 148 149 145 141 141 140 142 144 145 145
201 200 190 153 184 186 195 189 206 189 188 194 199 195 192 192 186 198 206 205 225 219 212 212 233 248 187 149 205 209 203 200 201 206 208 209 209 205 198 183 181 185 180 176 174 175 182 184 181 181 179 179 178 177 168 164 167 163 161 161 168 176 180 183 174 174 167 167 153 146 144 148 146 144 145 146 149 148 143 143 141 141 146 147 147 151
292 208 194 160 186 182 194 179 211 206 196 202 199 205 200 201 208 203 207 184 214 223 266 240 235 222 104 171 195 202 211 214 211 215 216 217 212 197 183 181 182 176 171 170 171 176 182 183 182 178 174 171 170 166 159 162 169 167 157 159 169 171 177 180 178 177 166 145 143 141 145 146 149 150 151 152 153 149 147 143 142 149 149 151 150 152
276 209 167 164 166 192 155 173 203 223 200 203 208 216 205 208 205 214 217 186 200 210 204 203 211 189 127 220 248 75 96 89 90 66 119 131 136 163 171 171 169 168 168 166 171 177 181 182 177 173 165 170 169 165 165 167 169 160 158 164 167 170 171 173 172 173 157 140 132 143 151 153 152 154 157 158 155 152 149 144 147 153 153 151 154 154
204 210 199 156 165 169 167 185 196 207 215 210 203 206 212 212 206 219 232 230 223 212 213 217 224 226 133 133 103 194 159 156 179 183 193 182 166 172 172 169 169 168 168 171 178 182 179 178 172 174 169 169 166 167 168 169 167 162 163 165 167 167 168 167 167 174 166 142 141 151 154 153 156 162 164 161 155 152 149 146 152 156 155 153 158 155
253 167 201 172 176 176 180 183 189 191 200 202 211 202 212 213 203 200 212 200 219 209 215 221 226 228 141 155 156 159 156 146 139 146 164 200 185 178 174 174 172 172 175 176 178 180 183 181 170 169 169 168 167 167 169 171 166 166 165 165 166 164 164 166 169 173 157 147 153 159 158 158 163 165 164 160 154 154 153 150 155 156 158 160 158 157
258 246 248 246 194 184 196 189 152 188 184 204 199 209 199 211 210 209 211 217 214 208 222 220 228 225 218 188 198 193 197 190 155 161 172 179 182 185 179 172 174 172 175 182 181 179 177 181 175 172 168 166 167 167 169 169 167 167 165 165 167 165 161 165 167 167 154 158 163 164 162 164 168 164 162 159 156 156 156 153 157 161 162 163 160 162
243 242 230 251 280 291 195 178 153 188 190 200 202 205 206 204 211 211 211 219 216 234 228 222 219 229 240 238 229 196 170 164 159 161 177 177 182 178 177 175 172 175 179 180 181 182 181 179 174 170 166 164 168 168 171 170 170 167 168 167 168 168 165 158 160 160 157 161 165 163 163 166 165 159 157 157 156 158 160 155 161 165 160 163 164 165
216 236 225 274 273 266 269 225 170 205 203 194 201 198 201 203 207 215 221 226 225 222 237 194 220 222 233 256 253 257 50 42 71 180 188 184 178 177 174 178 181 182 182 184 185 188 184 179 175 174 172 168 166 170 170 172 172 168 168 164 168 166 165 154 169 166 161 165 164 164 162 160 158 155 155 156 158 159 162 159 164 162 162 165 166 169
248 225 194 258 268 264 243 228 214 215 220 222 208 204 204 202 205 210 214 220 228 236 240 261 208 224 226 246 257 315 67 20 29 125 174 182 187 183 182 181 185 189 187 188 188 187 183 178 172 172 175 173 171 173 172 171 170 170 164 164 168 165 158 157 173 163 160 166 163 161 159 154 152 156 155 157 159 161 163 160 161 164 165 169 168 170
232 147 45 235 243 233 233 262 269 240 220 220 222 217 211 209 210 210 213 215 221 228 232 240 249 251 236 247 262 164 336 18 276 204 197 196 189 186 183 186 189 191 191 190 188 188 182 178 175 172 172 176 177 177 175 175 173 169 167 167 164 154 155 156 164 164 159 158 156 155 152 148 151 154 157 158 160 160 163 161 163 167 169 169 169 170
219 248 209 228 252 228 184 313 258 226 217 221 218 218 211 207 210 208 215 213 218 222 223 233 239 242 245 249 253 251 199 257 246 221 204 197 195 187 190 187 191 192 190 188 185 188 183 180 182 179 178 174 174 175 174 176 170 170 170 163 159 157 157 157 162 161 156 152 153 154 152 151 155 158 158 160 161 161 163 160 164 170 171 168 170 170
198 236 220 194 254 216 150 326 213 186 191 215 220 215 211 208 211 209 216 218 224 226 224 225 236 244 255 255 256 255 252 250 248 228 207 198 198 194 195 193 191 192 192 189 185 187 189 186 181 178 182 180 177 178 178 175 172 171 164 154 156 152 159 161 162 160 152 151 156 157 155 155 159 162 162 164 162 162 161 162 169 172 171 171 171 172
201 221 226 188 274 290 318 18 171 177 197 214 209 206 210 211 204 211 210 213 218 218 232 236 244 247 247 250 250 255 262 260 251 223 209 203 193 194 196 199 199 191 190 190 188 185 185 179 177 179 179 176 179 178 173 178 170 171 156 154 156 160 165 163 162 160 154 154 158 156 155 157 161 163 165 164 163 162 164 168 173 172 172 171 171 178
197 212 261 17 285 280 311 278 191 201 202 78 49 179 202 209 208 214 215 212 212 215 223 230 238 244 248 252 257 271 299 63 201 217 205 204 202 197 196 197 195 191 188 188 188 186 179 180 174 171 172 174 173 178 170 174 162 149 147 154 158 162 158 157 154 160 161 162 160 156 157 162 164 165 163 163 162 165 169 172 172 172 173 172 174 179
187 199 21 295 264 277 258 189 187 191 86 96 81 95 57 216 218 218 227 220 217 218 216 225 232 240 246 254 264 274 298 276 239 225 214 203 199 199 197 198 191 189 188 186 187 186 178 176 174 172 176 176 167 170 173 171 159 152 153 160 159 157 161 160 157 154 153 156 158 158 160 163 164 164 160 161 163 168 171 172 170 171 170 172 176 181
170 67 275 279 279 310 323 207 156 101 150 138 152 144 175 187 188 195 213 223 221 219 218 224 232 240 246 247 245 302 334 274 255 231 206 203 200 205 205 198 190 188 185 183 185 186 182 177 177 173 170 169 171 173 174 159 156 154 151 155 159 164 170 171 172 171 165 165 165 163 165 166 162 160 161 162 163 167 168 168 167 168 167 172 176 179
128 183 218 263 296 314 316 245 186 170 186 126 61 96 155 8 280 213 219 238 218 215 215 224 232 237 240 213 181 158 265 281 265 254 178 194 195 200 200 196 186 181 178 181 179 180 180 177 172 170 174 172 175 174 160 155 157 157 158 162 164 168 172 176 176 170 166 164 160 158 163 167 165 161 163 165 169 169 162 158 159 163 164 170 168 173
156 226 273 277 293 304 302 266 195 153 81 39 60 65 78 16 251 147 205 235 213 214 213 221 229 236 237 203 169 158 222 254 274 316 103 183 185 186 189 191 180 173 175 179 176 175 176 178 173 167 174 173 177 171 159 158 160 163 168 171 172 173 172 177 169 163 161 159 155 154 160 167 166 165 168 172 174 168 162 163 164 158 158 159 161 168
150 206 249 252 260 257 292 304 75 329 69 28 14 18 356 90 169 188 201 210 93 132 213 219 228 236 229 190 168 198 227 244 225 139 7 208 175 170 183 182 171 171 173 173 172 173 172 170 165 173 178 180 178 167 162 162 166 168 168 170 171 175 179 180 179 177 169 159 158 160 161 160 157 158 163 169 170 167 168 163 156 157 159 158 167 172
178 205 226 271 285 303 263 266 147 115 82 40 14 10 63 163 199 193 201 63 12 23 50 244 249 241 202 186 190 224 217 13 31 349 260 198 164 163 176 178 177 173 168 169 168 164 168 173 174 178 180 178 167 162 161 162 164 166 168 168 171 176 180 181 176 169 165 162 163 163 157 147 147 149 155 161 159 158 156 159 159 154 158 158 169 172
212 238 275 312 278 288 328 289 125 82 52 345 39 41 109 178 191 194 34 306 327 354 30 336 258 229 214 210 203 228 95 102 36 360 247 190 172 162 181 181 175 171 166 165 160 169 165 171 177 180 179 176 165 161 161 164 165 167 166 173 180 181 173 163 158 157 157 161 163 162 161 153 135 136 145 153 153 155 158 160 157 157 159 166 166 167
184 211 212 201 245 297 266 274 181 170 113 54 344 154 190 298 55 10 309 34 14 12 360 26 317 284 222 209 210 194 150 202 34 29 158 165 163 167 177 179 175 168 163 165 166 173 169 172 177 179 179 176 170 166 167 166 166 168 166 172 178 180 182 156 143 147 153 154 153 157 157 150 151 155 160 164 162 162 165 164 164 164 167 168 166 167
148 239 243 186 151 248 236 263 28 36 346 69 7 36 52 17 340 343 325 18 21 22 13 1 39 5 237 226 195 164 159 187 151 123 139 150 154 157 169 176 174 169 167 168 169 171 175 172 174 173 176 178 178 172 170 170 168 168 171 181 175 175 175 158 150 148 155 157 159 159 157 155 161 166 169 167 170 174 172 171 169 166 168 171 171 172
172 237 352 272 184 235 288 7 103 334 318 357 35 314 337 5 348 347 326 360 16 26 2 22 26 36 66 182 207 189 177 206 137 125 143 151 158 147 143 172 183 182 178 170 173 168 174 174 174 173 176 177 181 175 171 172 169 166 178 181 175 172 175 163 160 168 169 166 165 163 163 166 173 176 172 171 174 178 174 165 163 169 176 179 185 183
357 294 326 242 197 332 253 257 323 293 318 314 226 250 269 210 125 302 351 41 37 33 26 27 23 37 53 36 232 196 231 218 236 224 146 164 179 173 166 169 174 190 195 184 178 174 179 170 173 174 177 180 183 182 177 177 172 172 178 163 168 176 175 163 167 171 169 161 155 157 160 165 170 172 172 172 177 177 172 169 173 179 181 186 187 182
190 172 229 242 46 295 213 142 233 230 144 156 196 182 228 253 43 350 350 65 64 51 50 49 40 39 38 18 342 341 224 246 226 212 187 161 170 173 178 169 171 179 190 188 184 174 183 173 176 179 180 180 181 184 182 178 178 177 166 162 164 167 165 166 166 162 155 151 147 144 155 160 167 170 173 175 176 178 177 178 183 187 184 187 183 180
167 156 249 241 235 241 333 50 135 247 248 188 197 163 145 241 265 284 264 99 89 73 49 50 60 53 34 48 30 41 77 104 196 186 195 172 150 155 166 168 174 178 185 189 183 177 189 179 179 178 179 182 184 185 183 180 179 171 162 163 165 161 159 162 164 160 159 156 154 160 167 171 161 164 170 176 180 184 187 187 188 187 185 185 181 177
308 257 229 209 233 244 259 239 235 210 206 173 169 98 30 4 303 308 263 109 95 88 83 65 54 58 54 43 34 69 96 101 120 173 188 140 132 151 161 163 171 178 179 184 171 182 189 187 185 178 182 182 183 186 185 180 173 168 163 166 164 164 165 165 161 162 163 162 163 166 166 167 163 175 170 172 179 188 188 184 183 182 179 182 177 180
232 237 262 230 239 236 255 211 179 201 200 186 113 80 83 94 348 8 333 68 68 73 77 83 86 74 62 46 42 63 79 92 103 142 145 150 155 138 145 159 168 172 175 181 171 187 190 185 187 175 180 185 187 186 183 174 171 170 167 165 167 166 167 164 164 167 165 166 167 167 167 169 167 173 170 172 178 183 186 177 180 187 182 180 187 184
267 307 296 266 247 226 55 307 225 316 65 55 93 85 72 28 28 46 44 46 56 57 63 57 69 81 73 62 45 69 77 81 82 96 112 118 122 135 147 154 164 168 173 172 179 191 187 175 185 170 180 186 185 187 182 169 169 166 167 166 168 169 166 161 160 163 165 168 171 167 170 171 170 174 174 176 177 180 178 171 162 64 51 229 177 177